Regional Weather Roundup
Issued by NWS

Home | Current Version | Previous Version | Text Only | Print | Product List | Glossary On
Versions: 1 2 3 4 5 6 7 8 9 10 11 12 13 14 15 16 17 18 19 20 21 22 23 24 25 26 27 28 29 30 31 32 33 34 35 36 37 38 39 40 41 42 43 44 45 46 47 48 49 50
000
ASUS43 KMPX 181901
RWRMN
WEATHER ROUNDUP FOR MINNESOTA
NATIONAL WEATHER SERVICE TWIN CITIES/CHANHASSEN MN
100 PM CST THU JAN 18 2018


NOTE: "FAIR" INDICATES FEW OR NO CLOUDS BELOW 12,000 FEET WITH NO
SIGNIFICANT WEATHER AND/OR OBSTRUCTIONS TO VISIBILITY. N/A MEANS
CURRENT SKY AND/OR WEATHER CONDITIONS ARE NOT AVAILABLE.

MNZ060>063-068>070-182000-
   Twin Cities Metro

CITY           SKY/WX    TMP DP  RH WIND       PRES   REMARKS
TWIN CITIES    FAIR      39  25  57 W9        29.82F
ST PAUL        FAIR      37  22  54 SW8       29.83F
CRYSTAL        FAIR      38  22  52 SW8       29.80F
BLAINE         SUNNY     43  25  49 W9        29.80
LAKEVILLE      FAIR      36  25  64 W8        29.82F
EDEN PRAIRIE   FAIR      38  24  57 SW9       29.82F
SOUTH ST PAUL  FAIR      38  24  55 W7        29.82F
LAKE ELMO      FAIR      37  25  60 SW8       29.82F
$$
MNZ001>005-007-008-013>017-022>024-027-028-182000-
   Northwest Minnesota

CITY           SKY/WX    TMP DP  RH WIND       PRES   REMARKS
BEMIDJI        CLOUDY    31  25  78 W8        29.73S WCI  24
HALLOCK        CLOUDY    27  19  74 S3        29.73F
ROSEAU         CLOUDY    27  21  80 CALM      29.71F
WARROAD        PTSUNNY   25  19  80 W6        29.72S WCI  18
CROOKSTON      FAIR      27  21  80 SW3       29.75F
FOSSTON        PTSUNNY   28  19  69 SW8       29.75F WCI  20
DETROIT LAKES  FAIR      32  23  69 W3        29.77S
MOORHEAD       FAIR      28  21  74 SW6       29.79F WCI  22
PARK RAPIDS    FAIR      32  26  78 NW5       29.74F WCI  27
MAHNOMEN       FAIR      26  20  77 SW8       29.76S WCI  18
$$
MNZ006-009>011-018-025>026-182000-
   North Central Minnesota

CITY           SKY/WX    TMP DP  RH WIND       PRES   REMARKS
BAUDETTE       CLOUDY    26  20  77 W10       29.69F WCI  16
FLAG ISLAND    FAIR      25  16  68 NW8       29.69S WCI  16
INTL FALLS     CLOUDY    29  23  78 W8        29.69S WCI  21
WASKISH        CLOUDY    28  25  86 W5        29.72F WCI  23
BIG FORK       CLOUDY    30  23  74 W6        29.71F WCI  24
LONGVILLE      FAIR      36  25  64 W6        29.73F
GRAND RAPIDS   CLOUDY    34  25  69 NW10      29.73F WCI  26
CRANE LAKE     CLOUDY    28  27  93 W5        29.71S WCI  23
ORR            CLOUDY    28  23  80 W7        29.68R WCI  21
COOK           CLOUDY    30  25  80 W8        29.71R WCI  23
WALKER         FAIR      32  25  76 W9        29.73S WCI  24
$$
MNZ012-019>021-037-182000-
   Northeast Minnesota

CITY           SKY/WX    TMP DP  RH WIND       PRES   REMARKS
DULUTH         CLOUDY    34  26  72 W13       29.70S WCI  25
ELY            CLOUDY    30  27  86 W10       29.67R WCI  21
HIBBING        CLOUDY    30  23  75 NW13      29.71R WCI  20
EVELETH        PTSUNNY   30  20  67 NW10G17   29.72R WCI  21
DULUTH HARBOR  CLOUDY    36  28  75 W13       29.74S
TWO HARBORS    CLOUDY    37  28  70 W6        29.68S
GRAND MARAIS     N/A     36  30  79 VRB3      29.66F
G MARAIS ARPRT CLOUDY    28  25  86 W8        29.62F WCI  20
$$
MNZ029>031-032-039>041-046>048-054>057-064-182000-
   West Central Minnesota

CITY           SKY/WX    TMP DP  RH WIND       PRES   REMARKS
FERGUS FALLS   FAIR      32  25  74 NW5       29.78F WCI  27
WHEATON        CLOUDY    41  25  52 W5        29.81F
MORRIS         CLOUDY    43  27  52 NW7       29.78F
ALEXANDRIA     FAIR      37  24  59 W6        29.78F
ELBOW LAKE     FAIR      35  24  66 CALM      29.78F
WADENA         FAIR      34  21  60 W5        29.75F WCI  30
GLENWOOD       FAIR      37  25  60 W5        29.78F
APPLETON       CLOUDY    43  27  52 CALM      29.79F
BENSON         CLOUDY    41  28  60 W5        29.81F
ORTONVILLE     CLOUDY    43  27  52 SW3       29.79F
MADISON        CLOUDY    45  28  53 CALM      29.80F
WILLMAR        FAIR      39  27  60 W8        29.82F
$$
MNZ033>034-036-042>043-049>051-058-059-182000-
   Central Minnesota

CITY           SKY/WX    TMP DP  RH WIND       PRES   REMARKS
ST CLOUD       FAIR      39  25  57 W8        29.78F
SAUK CENTRE      N/A     36  25  65 W9        29.79F
PAYNESVILLE    FAIR      40  28  63 SW6       29.79F
AITKIN         FAIR      36  25  64 SW9       29.73F
PINE RIVER     FAIR      34  25  69 W3        29.78F
BRAINERD       FAIR      35  25  66 SW6       29.76F WCI  30
STAPLES        FAIR      34  21  60 W3        29.76F
LONG PRAIRIE   FAIR      36  23  60 S6        29.78F
LITTLE FALLS   FAIR      37  16  41 W6        29.78F
LITCHFIELD     FAIR      43  27  52 W5        29.81F
BUFFALO        FAIR      39  25  56 SW6       29.81F
MAPLE LAKE     FAIR      42  28  58 MISG      29.81F
HUTCHINSON     FAIR      42  30  62 SW9       29.82F
$$
MNZ037-044-045-052-053-182000-
   East Central Minnesota

CITY           SKY/WX    TMP DP  RH WIND       PRES   REMARKS
PRINCETON      FAIR      43  25  49 SW3       29.79F
MORA           FAIR      37  25  60 W6        29.79F
CAMBRIDGE      FAIR      39  25  56 W8        29.80F
RUSH CITY      FAIR      38  23  54 W7        29.79F
MOOSE LAKE     FAIR      37  27  65 NW7G16    29.72F
HINCKLEY       FAIR      37  28  70 W8        29.77F
CLOQUET        CLOUDY    34  25  69 W12G17    29.72S WCI  25
MCGREGOR       FAIR      36  27  69 W6        29.74F
$$
MNZ071>073-080-081-089-090-097-098-182000-
   Southwest Minnesota

CITY           SKY/WX    TMP DP  RH WIND       PRES   REMARKS
MONTEVIDEO     CLOUDY    46  27  46 CALM      29.80F
GRANITE FALLS  CLOUDY    47  32  56 SW6       29.83F
CANBY          CLOUDY    44  28  52 SW15      29.81F
MARSHALL       CLOUDY    40  28  62 W13       29.80F
REDWOOD FALLS  CLOUDY    42  29  59 SW10      29.81F
OLIVIA         CLOUDY    41  28  60 W7        29.80F
PIPESTONE      CLOUDY    30  25  80 SW12      29.82F WCI  21
WINDOM         CLOUDY    39  21  48 SW15      29.83F
WORTHINGTON    CLOUDY    36  27  69 SW16      29.84F
JACKSON        CLOUDY    37  28  70 SW14      29.85F
SLAYTON        CLOUDY    34  26  70 SW13      29.84F WCI  25
$$
MNZ065>067-074>077-082>085-091>093-182000-
   South Central Minnesota

CITY           SKY/WX    TMP DP  RH WIND       PRES   REMARKS
MANKATO        FAIR      40  27  59 SW12      29.82F
NEW ULM        SUNNY     45  28  53 SW13      29.82F
ST JAMES       SUNNY     45  28  53 SW13G18   29.83F
FAIRMONT       SUNNY     39  27  62 SW17G24   29.84F
FARIBAULT      FAIR      34  28  80 S9        29.83F WCI  26
OWATONNA       FAIR      36  27  69 SW15      29.83F
WASECA         FAIR      36  30  80 SW12      29.85F
ALBERT LEA     FAIR      37  23  56 SW12      29.85F
$$
MNZ078>079-086>088-094>096-182000-
   Southeast Minnesota

CITY           SKY/WX    TMP DP  RH WIND       PRES   REMARKS
ROCHESTER      FAIR      32  25  75 SW16      29.85F WCI  21
RED WING       FAIR      37  19  48 W8        29.83F
STANTON        FAIR      36  25  64 SW8       29.82F
DODGE CENTER   FAIR      34  27  75 SW16      29.83F WCI  23
WINONA         FAIR      36  23  60 SW6       29.86F
PRESTON        FAIR      33  22  65 SW13G18   29.87F WCI  23
$$
ABBREVIATIONS USED IN REMARKS
   TC - TEMPERATURES IN CELSIUS
  WCI - WIND CHILL INDEX
   HX - HEAT INDEX
  VSB - VISIBILITY
$$




USA.gov is the U.S. government's official web portal to all federal, state and local government web resources and services.